Effective Sunday, March 17, 2024, the National Weather Service National Data Buoy Center will discontinue its Dial-A-Buoy Interactive Voice Response system. For more information, see Service Change Notice 24-06 (PDF).

Station PCLM4 - Portage Canal, MI Image indicating link to RSS feed of recent meteorological observations for station PCLM4


Conditions at PCLM4 as of
(11:40 pm EST on 02/23/2024)
0440 GMT on 02/24/2024:
     

Click on the graph icon in the table below to see a time series plot of the last five days of that observation.

5-day plot - Wind Direction Wind Direction (WDIR): NE ( 40 deg true )
5-day plot - Wind Speed Wind Speed (WSPD): 2.9 kts
5-day plot - Wind Gust Wind Gust (GST): 5.1 kts
5-day plot - Atmospheric Pressure Atmospheric Pressure (PRES):29.84 in
5-day plot - Air Temperature Air Temperature (ATMP): 7.9 °F
5-day plot - Wind Chill Wind Chill (CHILL): 1.4 °F
5-day plot - Wind Speed at 10 Meters Wind Speed at 10 meters (WSPD10M): 3.9 kts
5-day plot - Wind Speed at 20 Meters Wind Speed at 20 meters (WSPD20M): 3.9 kts
5-day plot -  Wind Speed, Wind Gust and Atmospheric Pressure Combined plot of Wind Speed, Gust, and Air Pressure
Previous observations
TIME
(EST)
5-day plot - Wind Direction
WDIR
 
5-day plot - Wind Speed
WSPD
kts
5-day plot - Wind Gust
GST
kts
5-day plot - Wave Height
WVHT
ft
5-day plot - Dominant Wave Period
DPD
sec
5-day plot - Average Wave Period
APD
sec
5-day plot - Mean Wave Direction
MWD
 
5-day plot - Atmospheric Pressure
PRES
in
5-day plot - Pressure Tendency
PTDY
in
5-day plot - Air Temperature
ATMP
°F
5-day plot - Water Temperature
WTMP
°F
5-day plot - Dew Point
DEWP
°F
5-day plot - Salinity
SAL
psu
5-day plot - Visibility
VIS
nmi
5-day plot - Tide (above MLLW)
TIDE
ft
2024-02-23 11:30 pm NE 2.9 5.1----29.85- 7.9-----
2024-02-23 11:20 pmNNE 2.9 4.1----29.84- 8.2-----
2024-02-23 11:10 pm NE 2.9 5.1----29.84- 8.1-----
2024-02-23 11:00 pmENE 1.9 4.1----29.84+0.00 8.8-----
2024-02-23 10:50 pm W 2.9 8.9----29.84- 12.7-----
2024-02-23 10:40 pmWSW 6.0 11.1----29.84- 17.1-----
2024-02-23 10:30 pmWSW 7.0 11.1----29.85- 13.3-----
2024-02-23 10:20 pmWSW 7.0 11.1----29.85- 17.1-----
2024-02-23 10:10 pm W 4.1 9.9----29.85- 10.2-----
2024-02-23 10:00 pm NE------29.85+0.01 8.8-----
2024-02-23 09:50 pm N 1.9 8.9----29.85- 10.9-----
2024-02-23 09:40 pm W 6.0 8.0----29.86- 13.3-----
2024-02-23 09:30 pm W 4.1 8.0----29.86- 11.7-----
2024-02-23 09:20 pmSSW 2.9 7.0----29.85- 10.9-----
2024-02-23 09:10 pm- 0.0 6.0----29.85- 9.0-----
2024-02-23 09:00 pm- 0.0 2.9----29.85+0.02 8.8-----
2024-02-23 08:50 pm- 0.0 1.9----29.84- 9.1-----
2024-02-23 08:40 pm- 0.0 5.1----29.84- 10.6-----
2024-02-23 08:30 pmWSW 2.9 6.0----29.84- 13.5-----
2024-02-23 08:20 pm SW 2.9 8.0----29.84- 13.3-----
2024-02-23 08:10 pm SW 5.1 7.0----29.84- 13.3-----
2024-02-23 08:00 pmSSW 1.9 6.0----29.84+0.02 12.9-----
2024-02-23 07:50 pm SW 4.1 7.0----29.84- 12.9-----
2024-02-23 07:40 pm SW 4.1 7.0----29.84- 12.7-----
2024-02-23 07:30 pm S 6.0 8.9----29.84- 12.7-----
2024-02-23 07:20 pmSSW 6.0 8.0----29.84- 12.6-----
2024-02-23 07:10 pm S 6.0-----29.84- 12.4-----
2024-02-23 07:00 pm S 4.1-----29.84+0.04 12.2-----
2024-02-23 06:50 pm SW 4.1 9.9----29.84- 12.2-----
2024-02-23 06:40 pm SW 5.1 9.9----29.84- 12.0-----
2024-02-23 06:30 pmSSW 7.0 9.9----29.84- 12.2-----
2024-02-23 06:20 pmSSW 7.0 11.1----29.83- 12.2-----
2024-02-23 06:10 pm SW 5.1 12.0----29.84- 12.4-----
2024-02-23 06:00 pm SW 6.0 8.0----29.83+0.05 12.9-----
2024-02-23 05:50 pm SW 7.0 11.1----29.83- 12.7-----
2024-02-23 05:40 pm S 7.0 11.1----29.82- 12.7-----
2024-02-23 05:30 pm S 8.0 12.0----29.83- 12.4-----
2024-02-23 05:20 pmSSW 8.0 14.0----29.83- 12.6-----
2024-02-23 05:10 pmSSW 7.0 13.0----29.82- 12.9-----
2024-02-23 05:00 pmSSW 11.1 13.0----29.82+0.03 12.7-----
2024-02-23 04:50 pm S 7.0 12.0----29.81- 13.3-----
2024-02-23 04:40 pm S 9.9 12.0----29.81- 13.3-----
2024-02-23 04:30 pm S------29.81- 13.3-----
2024-02-23 04:20 pmSSW 8.0 12.0----29.80- 13.5-----
2024-02-23 04:10 pm S 8.9 12.0----29.80- 13.3-----
2024-02-23 04:00 pmSSW 7.0 12.0----29.80+0.03 13.6-----
2024-02-23 03:50 pm S 6.0 11.1----29.80- 13.5-----
2024-02-23 03:40 pm S------29.80- 13.3-----
2024-02-23 03:30 pm S 7.0 14.0----29.79- 13.6-----
2024-02-23 03:20 pm S 8.9 15.0----29.79- 14.0-----
2024-02-23 03:10 pm S 8.9 15.9----29.78- 13.5-----
2024-02-23 03:00 pm S 11.1 14.0----29.78+0.01 13.6-----
2024-02-23 02:50 pm S 9.9 15.0----29.79- 13.5-----
2024-02-23 02:40 pmSSE 6.0 14.0----29.79- 13.6-----
2024-02-23 02:30 pm S 8.9 12.0----29.79- 13.6-----
2024-02-23 02:20 pm S 9.9 19.0----29.79- 13.5-----
2024-02-23 02:10 pm S 11.1 15.9----29.78- 13.8-----
2024-02-23 02:00 pm S 8.0 13.0----29.79+0.04 14.2-----
2024-02-23 01:50 pmSSE 6.0 15.9----29.79- 14.4-----
2024-02-23 01:40 pm S 8.9 15.0----29.78- 14.7-----
2024-02-23 01:30 pm S 5.1 14.0----29.78- 14.5-----
2024-02-23 01:20 pm S 8.9 17.1----29.78- 14.0-----
2024-02-23 01:10 pmSSE 7.0 15.0----29.78- 13.8-----
2024-02-23 01:00 pm S 8.9 15.9----29.77+0.05 13.6-----
2024-02-23 12:50 pm S 8.9 18.1----29.77- 14.0-----
2024-02-23 12:40 pm S 11.1 17.1----29.77- 14.2-----
2024-02-23 12:30 pm S 8.9 15.9----29.77-------
2024-02-23 12:20 pm S 8.0 15.9----29.77- 14.4-----
2024-02-23 12:10 pmSSE 11.1 17.1----29.77- 14.0-----
2024-02-23 12:00 pm S 8.9 14.0----29.77+0.08 14.2-----
2024-02-23 11:50 amSSE 7.0 17.1----29.76- 13.8-----
2024-02-23 11:40 am S 12.0 21.0----29.76- 14.2-----
2024-02-23 11:30 am S 11.1 19.0----29.76- 14.4-----
2024-02-23 11:20 am S 11.1 20.0----29.75- 13.8-----
2024-02-23 11:10 am S 9.9 17.1----29.75- 13.8-----
2024-02-23 11:00 am S 13.0 17.1----29.75+0.09 14.2-----
2024-02-23 10:50 am S 8.9 18.1----29.74- 14.2-----
2024-02-23 10:40 amSSE 8.0 19.0----29.74- 13.8-----
2024-02-23 10:30 am S 8.0 18.1----29.73- 14.4-----
2024-02-23 10:20 am S 9.9 18.1----29.73- 14.2-----
2024-02-23 10:10 am S 14.0 20.0----29.72-------
2024-02-23 10:00 am S 13.0 19.0----29.72+0.10 13.3-----
2024-02-23 09:50 am S 9.9 19.0----29.71- 13.8-----
2024-02-23 09:40 am S 13.0 20.0----29.70-------
2024-02-23 09:30 amSSE 11.1 19.0----29.70- 14.2-----
2024-02-23 09:20 am SE 8.0 21.0----29.70- 12.7-----
2024-02-23 09:10 amSSE 9.9 15.0----29.69- 13.3-----
2024-02-23 09:00 amSSE 7.0 21.0----29.69+0.09 13.5-----
2024-02-23 08:50 am S 13.0 20.0----29.69- 13.6-----
2024-02-23 08:40 amSSE 8.0 19.0----29.68- 13.3-----
2024-02-23 08:30 amSSE 11.1 17.1----29.67- 13.3-----
2024-02-23 08:20 amSSE 8.9 15.9----29.68- 13.1-----
2024-02-23 08:10 amSSE 8.0 19.0----29.67- 13.3-----
2024-02-23 08:00 amSSE 9.9 21.0----29.66+0.07 13.1-----
2024-02-23 07:50 am SE 8.0 17.1----29.66- 13.3-----
2024-02-23 07:40 amSSE 11.1 15.9----29.64- 13.8-----
2024-02-23 07:30 am S 13.0 24.1----29.64- 14.4-----
2024-02-23 07:20 amSSE 11.1 19.0----29.63- 14.4-----
2024-02-23 07:10 am S 15.0 24.1----29.63- 16.0-----
2024-02-23 07:00 am S 17.1 21.0----29.62+0.06 16.3-----
2024-02-23 06:50 am S 13.0 20.0----29.62- 16.2-----
2024-02-23 06:40 am S 18.1 22.9----29.61- 16.3-----
2024-02-23 06:30 am S 13.0 22.9----29.62- 16.2-----
2024-02-23 06:20 am S 18.1 24.1----29.61- 16.5-----
2024-02-23 06:10 am S 11.1 24.1----29.60- 16.9-----
2024-02-23 06:00 am S 12.0 24.1----29.60+0.05 16.7-----
2024-02-23 05:50 am S 18.1 22.9----29.60- 17.1-----
2024-02-23 05:40 am S 15.0 24.1----29.60- 17.1-----
2024-02-23 05:30 am S 15.9 26.0----29.60- 17.6-----
2024-02-23 05:20 am S 13.0 25.1----29.60- 17.8-----
2024-02-23 05:10 am S 19.0 24.1----29.59- 17.4-----
2024-02-23 05:00 am S 17.1 22.0----29.59+0.09 18.1-----
2024-02-23 04:50 am S 15.0 27.0----29.58- 18.1-----
2024-02-23 04:40 am S 20.0 24.1----29.57- 18.3-----
2024-02-23 04:30 am S 18.1 22.9----29.57- 18.7-----
2024-02-23 04:20 am S 19.0 27.0----29.56- 19.0-----
2024-02-23 04:10 am S 18.1-----29.56- 19.0-----
2024-02-23 04:00 am S 20.0 27.0----29.56+0.09 19.0-----
2024-02-23 03:50 am S 17.1 26.0----29.55- 19.6-----
2024-02-23 03:40 am S 15.0 26.0----29.55- 19.6-----
2024-02-23 03:30 am S 15.0 24.1----29.55- 20.1-----
2024-02-23 03:20 am S 20.0 27.0----29.54- 19.9-----
2024-02-23 03:10 am S 20.0 25.1----29.55- 20.3-----
2024-02-23 03:00 am S 19.0 26.0----29.55+0.14 20.7-----
2024-02-23 02:50 am S 20.0 27.0----29.54- 21.2-----
2024-02-23 02:40 am S 19.0 27.0----29.53- 21.4-----
2024-02-23 02:30 am S 19.0 27.0----29.53- 21.9-----
2024-02-23 02:20 am S 21.0 28.0----29.52- 22.3-----
2024-02-23 02:10 am S 21.0 29.9----29.52- 22.8-----
2024-02-23 02:00 am S 22.0 27.0----29.50+0.12 23.5-----
2024-02-23 01:50 am S 24.1 28.0----29.51- 23.5-----
2024-02-23 01:40 am S 19.0 31.1----29.50- 23.9-----
2024-02-23 01:30 am S 22.9 28.0----29.49- 24.6-----
2024-02-23 01:20 am S 18.1 31.1----29.48- 24.8-----
2024-02-23 01:10 am S 22.9 28.9----29.47- 25.7-----
2024-02-23 01:00 am S 22.0 27.0----29.47+0.15 26.1-----
2024-02-23 12:50 am S 18.1 29.9----29.46- 27.0-----
2024-02-23 12:40 am S 22.9 28.0----29.44- 27.7-----
2024-02-23 12:30 am S 21.0 28.0------ 28.4-----
2024-02-23 12:20 am S 19.0 26.0----29.42- 29.3-----
2024-02-23 12:10 am S 21.0 27.0----29.41- 30.0-----
2024-02-23 12:00 am S 15.9 28.0----29.41+0.09 30.4-----
2024-02-22 11:50 pm S 18.1 27.0----29.40- 31.1-----